Flag for China Weather past 2 weeks in Foochow, Fujian, China

Now
86 °F

Passing clouds.


Feels Like: 97 °F
Forecast: 80 / 95 °F
Wind: 13 mph from South

Location: Fuzhou Airport

Current Time: Jun 30, 2015 at 4:22:23 PM

Latest Report: Jun 30, 2015 at 4:00 PM


Visibility: N/A

Pressure: 29.56 "Hg

Humidity: 75%

Dew point: 77 °F

Location of FoochowLocation

Historic Weather in Foochow — Graph

°F

Foochow temperature yesterday

Maximum temperature yesterday: 91 °F (at 12:00 PM)
Minimum temperature yesterday: 79 °F (at 4:00 AM)
Average temperature yesterday: 84 °F

Past Weeks' High & Low Weather Summary

 TemperatureHumidityPressure
High91 °F (Jun 26, 1:00 PM)100% (Jun 22, 6:00 AM)29.83 "Hg (Jun 22, 6:00 AM)
Low73 °F (Jun 19, 3:00 AM)62% (Jun 15, 5:00 PM)29.56 "Hg (Jun 17, 2:00 PM)
Average82 °F81%29.71 "Hg
* Reported Jun 15 3:00 PM — Jun 30 3:00 PM, Foochow, Weather by CustomWeather, © 2015

Note: Actual official high and low records may vary slightly from our data, if they occured in-between our weather recording intervals... More about our weather records

Advertising

Foochow weather history for previous 24 hours

 ConditionsComfort  
Time TempWeatherWind HumidityBarometerVisibility
3:00 PM
Tue, Jun 30
90 °FPassing clouds.17 mph67%29.56 "HgN/A
2:00 PM90 °FPassing clouds.15 mph67%29.56 "HgN/A
1:00 PM91 °FPassing clouds.20 mph63%29.59 "HgN/A
12:00 PM91 °FPassing clouds.15 mph63%29.62 "HgN/A
11:00 AM88 °FPassing clouds.15 mph70%29.62 "HgN/A
10:00 AM88 °FClear.17 mph75%29.65 "Hg6 mi
9:00 AM86 °FClear.15 mph75%29.65 "Hg5 mi
8:00 AM82 °FClear.10 mph84%29.65 "Hg5 mi
7:00 AM82 °FClear.8 mph84%29.65 "Hg4 mi
6:00 AM81 °FPassing clouds.6 mph89%29.65 "Hg4 mi
5:00 AM81 °FPassing clouds.6 mph89%29.65 "Hg4 mi
4:00 AM81 °FClear.10 mph89%29.62 "Hg5 mi
3:00 AM81 °FClear.6 mph89%29.62 "Hg5 mi
2:00 AM81 °FClear.6 mph89%29.62 "Hg10 mi
1:00 AM81 °FClear.10 mph89%29.65 "Hg10 mi
12:00 AM81 °FClear.10 mph89%29.68 "Hg10 mi
11:00 PM
Mon, Jun 29
81 °FClear.10 mph89%29.68 "Hg10 mi
10:00 PM82 °FClear.13 mph84%29.68 "Hg10 mi
9:00 PM81 °FClear.15 mph89%29.68 "Hg10 mi
8:00 PM82 °FClear.13 mph84%29.65 "Hg10 mi
7:00 PM82 °FClear.10 mph84%29.65 "Hg10 mi
6:00 PM84 °FPassing clouds.13 mph79%29.62 "HgN/A
5:00 PM88 °FClear.17 mph70%29.62 "Hg6 mi
4:00 PM88 °FClear.17 mph70%29.62 "Hg6 mi
Weather by CustomWeather, © 2015

See weather overviewHow to use our weather pages